STARLINK-30526, 58006

Orbit data source: Space-Track

STARLINK-30526, 58006 is a payload satellite owned by SpaceX/Seattle (US) in LEO that was launched on Thu, 05 Oct 2023 UTC via an FALCON 9 launch vehicle from the Air Force Eastern Test Range (AFETR). Payload-class satellites include a variety of spacecraft equipped with specific instruments for various scientific and technological missions. These include communications satellites like Starlink; space stations such as the ISS; scientific satellites like the Hubble; Earth observation satellites from companies like Planet Labs, Umbra, and HawkEye 360; GPS; miniature CubeSats for education and research; and military/defense satellites.

Loading next visibility...
Identifier
58006, 2023-153R
Orbit
LEO
Country
Flag of USUS
Related business
Manufacturer
SpaceX/Seattle
Mission
Partially operational Commercial Communications
Bus & Motor
STARLINK V2M, Unknown motor
Mass
730 kg wet, ~700 kg dry
Launch date (UTC)
2023-10-05 (3 years ago)
Launch vehicle
FALCON 9
Launch site
Air Force Eastern Test Range (AFETR)
Object type
Payload
Rocket body
Debris
Shape & HBR
Box + 2 Pan, 17.7 m
Radar Cross Section
33.884 m², Large (>1 m²)

Expand to show TLE details & history
Last TLE update: 2 days ago

TLE from 2 days ago
0 STARLINK-30526
1 58006U 23153R   26171.05411189  .00000639  00000-0  29750-4 0  9994
2 58006  43.0012 182.7537 0003255  96.0049 264.1175 15.31074839150853
Epoch: 2026-06-20T01:17Z
TLE epoch observation values (Epoch: 2026-06-20T01:17:55.267Z)
Latitude
-0.00001°
Longitude
-105.00083°
Altitude
472.609 km
Speed
7.631 km/s
True Right ascension
12h 11m 00s
True Declination
0° 00' 00"
Sunlit
Object was in daylight at epoch
Visualization orbit readout
Latitude
Unknown
Longitude
Unknown
Altitude
Unknown
Speed
Unknown
Apparent Right ascension
Unknown
Apparent Declination
Unknown
Sunlit
N/A
Visualization observer readout
Local Sidereal Time
21:25:22
Azimuth
Unknown
Elevation
Unknown
Doppler factor
Unknown
Orbital elements
Apogee altitude
476.783 km
Perigee altitude
472.322 km
Semi-major axis
6,852.689 km
Eccentricity
0.00033
Inclination
43.0012°
RAAN
182.7537°
Arg. of periapsis
96.0049°
True anomaly
264.0804°
Mean anomaly
264.1175°
Eccentric anomaly
264.09895°
Mean motion
3.82606 °/min
Orbital period
94.09 mins
BSTAR
0.00002975
Loading maneuver chart data...
Computing Atmospheric mass density...
Loading historical data...
Loading historical data...
Loading historical data...
Loading historical data...
Loading historical data...
Loading historical data...
Loading historical data...

Documentation

Showing up to 5 results
|